EWG5WA EDDK-EGLL

Flight info

Callsign EWG5WA
Flight time 1h 8m
Altitude 32000
Route NVO3B NVO Y868 SOGRI DCT DENUT L608 LOGAN
Aircraft A320/M-SDE3FGHIRWY/LB1

Departure

Time 2026-04-24 20:11
Airport Cologne Bonn Airport (EDDK)

Arrival

Time 2026-04-24 21:19
Airport London Heathrow Airport (EGLL)
Time Latitude Longitude Altitude Speed Heading
2026-04-24 19:55 50.87984 7.12373 232 ft 0 kts 215°
2026-04-24 20:03 50.87994 7.12384 232 ft 3 kts 216°
2026-04-24 20:03 50.88010 7.12403 235 ft 3 kts 216°
2026-04-24 20:03 50.88020 7.12415 236 ft 3 kts 207°
2026-04-24 20:03 50.88038 7.12423 236 ft 3 kts 171°
2026-04-24 20:04 50.88056 7.12414 234 ft 2 kts 141°
2026-04-24 20:04 50.88060 7.12408 233 ft 0 kts 137°
2026-04-24 20:06 50.88058 7.12412 232 ft 2 kts 137°
2026-04-24 20:06 50.88013 7.12478 233 ft 13 kts 136°
2026-04-24 20:07 50.87966 7.12548 233 ft 14 kts 136°
2026-04-24 20:07 50.87818 7.12634 232 ft 20 kts 152°
2026-04-24 20:07 50.87708 7.12788 232 ft 22 kts 139°
2026-04-24 20:07 50.87589 7.12961 233 ft 24 kts 136°
2026-04-24 20:08 50.87456 7.13152 233 ft 28 kts 137°
2026-04-24 20:08 50.87300 7.13380 233 ft 31 kts 137°
2026-04-24 20:08 50.87142 7.13608 238 ft 30 kts 137°
2026-04-24 20:08 50.86990 7.13830 244 ft 29 kts 137°
2026-04-24 20:09 50.86850 7.14033 255 ft 26 kts 137°
2026-04-24 20:09 50.86696 7.14198 259 ft 27 kts 142°
2026-04-24 20:09 50.86545 7.14412 263 ft 33 kts 138°
2026-04-24 20:09 50.86359 7.14680 275 ft 39 kts 137°
2026-04-24 20:10 50.86165 7.14962 285 ft 37 kts 137°
2026-04-24 20:10 50.86044 7.15206 292 ft 26 kts 94°
2026-04-24 20:10 50.86166 7.15356 290 ft 27 kts 350°
2026-04-24 20:10 50.86384 7.15286 289 ft 35 kts 338°
2026-04-24 20:11 50.86630 7.14963 274 ft 79 kts 317°
2026-04-24 20:11 50.87313 7.13968 426 ft 167 kts 318°
2026-04-24 20:11 50.88193 7.12691 1646 ft 179 kts 319°
2026-04-24 20:11 50.89163 7.11292 2594 ft 192 kts 319°
2026-04-24 20:12 50.90144 7.09863 3768 ft 193 kts 319°
2026-04-24 20:12 50.91044 7.08227 4778 ft 203 kts 298°
2026-04-24 20:12 50.91311 7.05975 5679 ft 224 kts 266°
2026-04-24 20:12 50.90875 7.03450 6371 ft 251 kts 254°
2026-04-24 20:13 50.90281 7.00715 7145 ft 274 kts 252°
2026-04-24 20:13 50.89628 6.97810 8185 ft 282 kts 252°
2026-04-24 20:13 50.88962 6.94866 9417 ft 287 kts 252°
2026-04-24 20:13 50.88300 6.91849 10511 ft 297 kts 252°
2026-04-24 20:14 50.87607 6.88615 11090 ft 322 kts 252°
2026-04-24 20:14 50.86877 6.85171 11603 ft 346 kts 252°
2026-04-24 20:14 50.86095 6.81481 12399 ft 358 kts 252°
2026-04-24 20:14 50.85293 6.77721 13405 ft 363 kts 252°
2026-04-24 20:15 50.84479 6.73920 14401 ft 367 kts 252°
2026-04-24 20:15 50.83654 6.70078 15331 ft 370 kts 252°
2026-04-24 20:15 50.82838 6.66196 16257 ft 373 kts 255°
2026-04-24 20:15 50.82370 6.62281 17126 ft 376 kts 265°
2026-04-24 20:16 50.82332 6.58013 18047 ft 379 kts 271°
2026-04-24 20:16 50.82397 6.53835 18860 ft 382 kts 271°
2026-04-24 20:16 50.82458 6.49615 19633 ft 385 kts 271°
2026-04-24 20:16 50.82514 6.45373 20401 ft 387 kts 271°
2026-04-24 20:17 50.82564 6.41158 21150 ft 389 kts 270°
2026-04-24 20:17 50.82658 6.32478 22639 ft 394 kts 270°
2026-04-24 20:17 50.82701 6.28127 23365 ft 397 kts 270°
2026-04-24 20:18 50.82731 6.25231 23832 ft 399 kts 270°
2026-04-24 20:18 50.82789 6.19341 24587 ft 402 kts 270°
2026-04-24 20:18 50.82832 6.14906 25140 ft 405 kts 270°
2026-04-24 20:18 50.82873 6.10431 25688 ft 408 kts 270°
2026-04-24 20:19 50.82910 6.05927 26230 ft 411 kts 270°
2026-04-24 20:19 50.82946 6.01391 26766 ft 414 kts 269°
2026-04-24 20:19 50.82927 5.96829 27279 ft 417 kts 268°
2026-04-24 20:19 50.82847 5.92227 27778 ft 420 kts 267°
2026-04-24 20:20 50.82733 5.87595 28257 ft 423 kts 267°
2026-04-24 20:20 50.82604 5.82940 28730 ft 426 kts 266°
2026-04-24 20:20 50.82474 5.78246 29190 ft 429 kts 267°
2026-04-24 20:20 50.82351 5.73581 29629 ft 432 kts 267°
2026-04-24 20:21 50.82231 5.68814 30064 ft 435 kts 267°
2026-04-24 20:21 50.82116 5.64032 30519 ft 436 kts 267°
2026-04-24 20:21 50.82009 5.59242 31041 ft 435 kts 267°
2026-04-24 20:21 50.81904 5.54469 31551 ft 434 kts 267°
2026-04-24 20:22 50.81800 5.49710 32038 ft 434 kts 268°
2026-04-24 20:22 50.81692 5.44946 32193 ft 433 kts 267°
2026-04-24 20:22 50.81462 5.35499 32224 ft 428 kts 267°
2026-04-24 20:23 50.81215 5.26102 32224 ft 428 kts 267°
2026-04-24 20:23 50.80965 5.16690 32228 ft 428 kts 267°
2026-04-24 20:24 50.80863 5.08707 32229 ft 429 kts 274°
2026-04-24 20:24 50.82260 4.99554 32228 ft 432 kts 291°
2026-04-24 20:25 50.84950 4.91031 32209 ft 434 kts 295°
2026-04-24 20:25 50.87662 4.82455 32211 ft 437 kts 294°
2026-04-24 20:26 50.90356 4.73865 32219 ft 439 kts 294°
2026-04-24 20:26 50.93074 4.65187 32221 ft 440 kts 294°
2026-04-24 20:27 50.95797 4.56491 32230 ft 440 kts 294°
2026-04-24 20:27 50.98511 4.47793 32238 ft 440 kts 294°
2026-04-24 20:28 51.01221 4.39089 32245 ft 440 kts 294°
2026-04-24 20:28 51.03924 4.30359 32243 ft 440 kts 294°
2026-04-24 20:29 51.06610 4.21643 32243 ft 439 kts 294°
2026-04-24 20:29 51.09294 4.12924 32243 ft 439 kts 294°
2026-04-24 20:30 51.11971 4.04204 32237 ft 438 kts 294°
2026-04-24 20:30 51.14627 3.95481 32239 ft 438 kts 294°
2026-04-24 20:31 51.17260 3.86804 32246 ft 437 kts 294°
2026-04-24 20:31 51.19900 3.78084 32243 ft 437 kts 294°
2026-04-24 20:32 51.22540 3.69352 32248 ft 437 kts 294°
2026-04-24 20:32 51.25453 3.60829 32252 ft 438 kts 298°
2026-04-24 20:33 51.28559 3.52469 32257 ft 437 kts 298°
2026-04-24 20:33 51.31654 3.44114 32264 ft 437 kts 298°
2026-04-24 20:34 51.34692 3.35702 32265 ft 435 kts 294°
2026-04-24 20:34 51.36899 3.26732 32262 ft 433 kts 289°
2026-04-24 20:35 51.39029 3.17707 32270 ft 433 kts 289°
2026-04-24 20:35 51.41144 3.08751 32266 ft 432 kts 289°
2026-04-24 20:36 51.43271 2.99740 32263 ft 432 kts 289°
2026-04-24 20:36 51.45391 2.90734 32262 ft 432 kts 289°
2026-04-24 20:37 51.47496 2.81718 32263 ft 432 kts 289°
2026-04-24 20:37 51.49592 2.72693 32264 ft 431 kts 289°
2026-04-24 20:38 51.51669 2.63668 32271 ft 431 kts 289°
2026-04-24 20:38 51.53742 2.54630 32272 ft 431 kts 289°
2026-04-24 20:39 51.55814 2.45607 32275 ft 431 kts 289°
2026-04-24 20:39 51.57879 2.36569 32278 ft 430 kts 289°
2026-04-24 20:40 51.59941 2.27524 32277 ft 430 kts 289°
2026-04-24 20:40 51.61982 2.18555 32277 ft 430 kts 289°
2026-04-24 20:41 51.64023 2.09496 31946 ft 431 kts 289°
2026-04-24 20:41 51.65041 2.04973 31570 ft 429 kts 289°
2026-04-24 20:41 51.66057 2.00454 31317 ft 430 kts 289°
2026-04-24 20:42 51.67073 1.95921 31079 ft 430 kts 289°
2026-04-24 20:42 51.68088 1.91379 30836 ft 431 kts 288°
2026-04-24 20:42 51.69102 1.86830 30596 ft 431 kts 288°
2026-04-24 20:42 51.70113 1.82278 30358 ft 431 kts 288°
2026-04-24 20:43 51.71120 1.77724 30085 ft 432 kts 288°
2026-04-24 20:43 51.72128 1.73151 29780 ft 432 kts 288°
2026-04-24 20:43 51.73136 1.68577 28699 ft 433 kts 288°
2026-04-24 20:43 51.73988 1.63986 27494 ft 431 kts 281°
2026-04-24 20:44 51.74399 1.59158 26312 ft 428 kts 273°
2026-04-24 20:44 51.74341 1.54403 25205 ft 427 kts 265°
2026-04-24 20:44 51.74036 1.49664 24153 ft 422 kts 264°
2026-04-24 20:44 51.73730 1.44987 23049 ft 418 kts 264°
2026-04-24 20:45 51.73427 1.40314 22405 ft 418 kts 264°
2026-04-24 20:45 51.73125 1.35669 21796 ft 417 kts 264°
2026-04-24 20:45 51.72823 1.31052 21295 ft 406 kts 264°
2026-04-24 20:45 51.72533 1.26646 21036 ft 387 kts 264°
2026-04-24 20:46 51.72248 1.22377 20425 ft 380 kts 264°
2026-04-24 20:46 51.71968 1.18200 19996 ft 370 kts 264°
2026-04-24 20:46 51.71694 1.14102 19418 ft 365 kts 264°
2026-04-24 20:46 51.71419 1.10031 18783 ft 364 kts 263°
2026-04-24 20:47 51.71143 1.05969 18092 ft 364 kts 263°
2026-04-24 20:47 51.70867 1.01928 17441 ft 362 kts 263°
2026-04-24 20:47 51.70596 0.98002 17105 ft 352 kts 263°
2026-04-24 20:47 51.70325 0.94108 16532 ft 349 kts 263°
2026-04-24 20:48 51.70051 0.90149 15429 ft 362 kts 263°
2026-04-24 20:48 51.69770 0.86085 14753 ft 363 kts 263°
2026-04-24 20:48 51.69493 0.82068 14344 ft 359 kts 263°
2026-04-24 20:48 51.69215 0.78079 13949 ft 358 kts 263°
2026-04-24 20:49 51.68937 0.74138 13528 ft 350 kts 263°
2026-04-24 20:49 51.68662 0.70300 13111 ft 341 kts 263°
2026-04-24 20:49 51.68394 0.66545 12697 ft 333 kts 263°
2026-04-24 20:49 51.68131 0.62871 12295 ft 327 kts 263°
2026-04-24 20:50 51.67872 0.59259 11887 ft 323 kts 263°
2026-04-24 20:50 51.67612 0.55688 11487 ft 320 kts 263°
2026-04-24 20:50 51.67427 0.52118 11092 ft 318 kts 271°
2026-04-24 20:50 51.67562 0.48573 10704 ft 316 kts 276°
2026-04-24 20:51 51.67747 0.45061 10321 ft 312 kts 275°
2026-04-24 20:51 51.67676 0.41612 9912 ft 306 kts 261°
2026-04-24 20:51 51.67298 0.38259 9492 ft 302 kts 260°
2026-04-24 20:51 51.66924 0.34977 9271 ft 291 kts 260°
2026-04-24 20:52 51.66560 0.31811 9286 ft 286 kts 260°
2026-04-24 20:52 51.66199 0.28697 9290 ft 286 kts 260°
2026-04-24 20:52 51.65831 0.25555 9292 ft 286 kts 260°
2026-04-24 20:52 51.65466 0.22463 9292 ft 272 kts 260°
2026-04-24 20:53 51.65122 0.19567 9293 ft 255 kts 259°
2026-04-24 20:53 51.64800 0.16854 9294 ft 239 kts 260°
2026-04-24 20:53 51.64450 0.14337 9294 ft 223 kts 250°
2026-04-24 20:53 51.63976 0.12879 9294 ft 214 kts 233°
2026-04-24 20:54 51.62876 0.11354 9295 ft 208 kts 206°
2026-04-24 20:54 51.61482 0.10810 9300 ft 208 kts 179°
2026-04-24 20:54 51.60102 0.11336 9299 ft 209 kts 152°
2026-04-24 20:54 51.58987 0.12841 9305 ft 209 kts 124°
2026-04-24 20:55 51.58423 0.14930 9299 ft 208 kts 98°
2026-04-24 20:55 51.58434 0.17249 9299 ft 208 kts 83°
2026-04-24 20:55 51.58611 0.19561 9297 ft 208 kts 81°
2026-04-24 20:55 51.58825 0.21991 9305 ft 238 kts 81°
2026-04-24 20:56 51.59080 0.24714 9296 ft 251 kts 77°
2026-04-24 20:56 51.59840 0.27204 9294 ft 251 kts 46°
2026-04-24 20:56 51.61301 0.28671 9293 ft 250 kts 14°
2026-04-24 20:56 51.63017 0.28688 9292 ft 249 kts 342°
2026-04-24 20:57 51.64472 0.27252 9294 ft 248 kts 311°
2026-04-24 20:57 51.65236 0.24827 9293 ft 249 kts 281°
2026-04-24 20:57 51.65151 0.22056 9293 ft 251 kts 257°
2026-04-24 20:57 51.64820 0.19289 9293 ft 252 kts 262°
2026-04-24 20:58 51.64585 0.16496 9294 ft 252 kts 263°
2026-04-24 20:58 51.64264 0.13731 9296 ft 252 kts 249°
2026-04-24 20:58 51.63276 0.11431 9295 ft 253 kts 220°
2026-04-24 20:58 51.61832 0.09908 9293 ft 240 kts 216°
2026-04-24 20:59 51.60810 0.07954 9295 ft 222 kts 249°
2026-04-24 20:59 51.60496 0.05618 9298 ft 209 kts 264°
2026-04-24 20:59 51.60364 0.03337 9300 ft 207 kts 266°
2026-04-24 20:59 51.60253 0.01023 9301 ft 207 kts 266°
2026-04-24 21:00 51.60144 -0.01291 9298 ft 207 kts 266°
2026-04-24 21:00 51.60037 -0.03596 9297 ft 207 kts 266°
2026-04-24 21:00 51.59931 -0.05906 9300 ft 207 kts 266°
2026-04-24 21:00 51.59824 -0.08215 9299 ft 207 kts 266°
2026-04-24 21:01 51.59718 -0.10525 9300 ft 207 kts 266°
2026-04-24 21:01 51.59611 -0.12839 9295 ft 207 kts 266°
2026-04-24 21:01 51.59505 -0.15148 9296 ft 207 kts 266°
2026-04-24 21:01 51.59399 -0.17430 9298 ft 207 kts 266°
2026-04-24 21:02 51.59292 -0.19741 9302 ft 207 kts 266°
2026-04-24 21:02 51.59186 -0.22055 9300 ft 207 kts 266°
2026-04-24 21:02 51.59079 -0.24367 9299 ft 207 kts 266°
2026-04-24 21:02 51.58972 -0.26683 9274 ft 207 kts 266°
2026-04-24 21:03 51.58866 -0.28998 9274 ft 208 kts 266°
2026-04-24 21:03 51.58759 -0.31319 9275 ft 208 kts 266°
2026-04-24 21:03 51.58652 -0.33632 9272 ft 208 kts 266°
2026-04-24 21:03 51.58546 -0.35949 9276 ft 208 kts 266°
2026-04-24 21:04 51.58439 -0.38270 9273 ft 208 kts 266°
2026-04-24 21:04 51.58324 -0.40788 9233 ft 243 kts 266°
2026-04-24 21:04 51.58199 -0.43558 8971 ft 250 kts 266°
2026-04-24 21:04 51.58073 -0.46353 8707 ft 251 kts 266°
2026-04-24 21:05 51.57949 -0.49141 8452 ft 250 kts 266°
2026-04-24 21:05 51.57827 -0.51928 8284 ft 250 kts 266°
2026-04-24 21:05 51.57706 -0.54676 8269 ft 249 kts 266°
2026-04-24 21:05 51.57583 -0.57464 8275 ft 250 kts 266°
2026-04-24 21:06 51.57460 -0.60250 8278 ft 250 kts 266°
2026-04-24 21:06 51.57338 -0.63031 8271 ft 250 kts 266°
2026-04-24 21:06 51.57217 -0.65817 8275 ft 250 kts 266°
2026-04-24 21:06 51.57096 -0.68602 8275 ft 250 kts 266°
2026-04-24 21:07 51.56976 -0.71383 8072 ft 249 kts 266°
2026-04-24 21:07 51.56857 -0.74155 7824 ft 248 kts 266°
2026-04-24 21:07 51.56740 -0.76918 7574 ft 247 kts 266°
2026-04-24 21:07 51.56624 -0.79666 7352 ft 246 kts 266°
2026-04-24 21:08 51.56509 -0.82403 7259 ft 245 kts 266°
2026-04-24 21:08 51.56395 -0.85151 7056 ft 246 kts 266°
2026-04-24 21:08 51.56282 -0.87885 6817 ft 244 kts 266°
2026-04-24 21:08 51.56172 -0.90603 6568 ft 244 kts 266°
2026-04-24 21:09 51.56064 -0.93312 6315 ft 243 kts 266°
2026-04-24 21:09 51.55960 -0.96011 6052 ft 239 kts 266°
2026-04-24 21:09 51.55864 -0.98613 5807 ft 233 kts 266°
2026-04-24 21:09 51.55774 -1.01184 5558 ft 228 kts 266°
2026-04-24 21:10 51.55483 -1.03637 5307 ft 222 kts 242°
2026-04-24 21:10 51.54471 -1.05406 5058 ft 214 kts 207°
2026-04-24 21:10 51.53060 -1.06009 4791 ft 209 kts 184°
2026-04-24 21:10 51.51625 -1.06034 4546 ft 205 kts 165°
2026-04-24 21:11 51.50427 -1.04907 4294 ft 201 kts 129°
2026-04-24 21:11 51.49756 -1.02964 4086 ft 195 kts 113°
2026-04-24 21:11 51.49263 -1.01012 4005 ft 185 kts 111°
2026-04-24 21:11 51.48797 -0.99093 4001 ft 184 kts 111°
2026-04-24 21:12 51.48333 -0.97179 4004 ft 184 kts 111°
2026-04-24 21:12 51.47869 -0.95262 4006 ft 184 kts 111°
2026-04-24 21:12 51.47584 -0.93266 4005 ft 184 kts 96°
2026-04-24 21:12 51.47525 -0.91208 4007 ft 185 kts 91°
2026-04-24 21:13 51.47520 -0.89173 4005 ft 185 kts 90°
2026-04-24 21:13 51.47530 -0.87111 4004 ft 185 kts 90°
2026-04-24 21:13 51.47543 -0.85049 4006 ft 185 kts 90°
2026-04-24 21:13 51.47558 -0.82984 4008 ft 185 kts 90°
2026-04-24 21:14 51.47572 -0.80923 3977 ft 185 kts 90°
2026-04-24 21:14 51.47586 -0.78861 3813 ft 184 kts 90°
2026-04-24 21:14 51.47599 -0.76816 3591 ft 183 kts 90°
2026-04-24 21:14 51.47612 -0.74783 3352 ft 181 kts 89°
2026-04-24 21:15 51.47625 -0.72769 3114 ft 180 kts 90°
2026-04-24 21:15 51.47637 -0.70761 2869 ft 179 kts 89°
2026-04-24 21:15 51.47648 -0.68774 2629 ft 178 kts 89°
2026-04-24 21:15 51.47660 -0.66809 2391 ft 172 kts 89°
2026-04-24 21:16 51.47670 -0.64983 2173 ft 161 kts 89°
2026-04-24 21:16 51.47679 -0.63221 1957 ft 156 kts 89°
2026-04-24 21:16 51.47688 -0.61496 1741 ft 154 kts 89°
2026-04-24 21:16 51.47697 -0.59789 1521 ft 151 kts 89°
2026-04-24 21:17 51.47705 -0.58133 1333 ft 149 kts 89°
2026-04-24 21:17 51.47713 -0.56474 1122 ft 146 kts 89°
2026-04-24 21:17 51.47721 -0.54961 950 ft 126 kts 89°
2026-04-24 21:17 51.47731 -0.53607 744 ft 117 kts 89°
2026-04-24 21:18 51.47740 -0.52333 577 ft 112 kts 90°
2026-04-24 21:18 51.47744 -0.51080 419 ft 112 kts 89°
2026-04-24 21:18 51.47743 -0.49843 280 ft 110 kts 89°
2026-04-24 21:18 51.47750 -0.48624 152 ft 109 kts 89°
2026-04-24 21:19 51.47752 -0.47433 86 ft 97 kts 90°
2026-04-24 21:19 51.47755 -0.46538 93 ft 60 kts 90°
2026-04-24 21:19 51.47726 -0.46172 88 ft 28 kts 135°
2026-04-24 21:19 51.47603 -0.46062 87 ft 14 kts 188°
2026-04-24 21:20 51.47517 -0.45890 87 ft 17 kts 90°
2026-04-24 21:20 51.47508 -0.45677 91 ft 21 kts 95°
2026-04-24 21:20 51.47508 -0.45424 87 ft 25 kts 90°
2026-04-24 21:21 51.47510 -0.45132 89 ft 27 kts 91°
2026-04-24 21:21 51.47510 -0.44812 91 ft 30 kts 89°
2026-04-24 21:21 51.47479 -0.44560 89 ft 20 kts 149°
2026-04-24 21:21 51.47332 -0.44566 87 ft 24 kts 179°
2026-04-24 21:22 51.47138 -0.44560 87 ft 30 kts 179°
2026-04-24 21:22 51.47050 -0.44558 87 ft 1 kts 179°
2026-04-24 21:22 51.46994 -0.44601 90 ft 7 kts 255°
2026-04-24 21:22 51.46996 -0.44674 88 ft 0 kts 269°
2026-04-24 21:23 51.46996 -0.44679 88 ft 0 kts 269°
2026-04-24 21:23 51.46996 -0.44680 88 ft 0 kts 269°
2026-04-24 21:23 51.46996 -0.44682 87 ft 0 kts 270°